period_start,C,m1,H,J0,J1,J2,J3,J4,J5,JA,JB,JC,JD,JJ,JK,JN,#
2015-07-07 00:01:11,0.01,0.20,0.00,24.56,27.97,30.34,4.76,26.57,1016.65,2036.00,3393.98,3256.63,3536.98,350.18,346.25,17.84,0000 0000 0000 0000 000000
2015-07-07 00:06:12,0.02,0.20,0.00,24.57,27.97,30.35,4.76,26.59,1016.63,2036.00,3393.96,3256.25,3536.93,350.12,345.97,17.87,0000 0000 0000 0000 000000
2015-07-07 00:11:13,0.01,0.20,0.00,24.58,27.97,30.35,4.83,26.59,1016.64,2036.00,3393.88,3256.03,3536.74,350.03,345.89,17.90,0000 0000 0000 0000 000000
2015-07-07 00:16:15,0.01,0.20,0.00,24.59,27.98,30.35,4.75,26.54,1016.63,2036.00,3393.74,3256.02,3536.43,349.70,345.45,17.93,0000 0000 0000 0000 000000
2015-07-07 00:21:16,0.01,0.20,0.00,24.60,28.00,30.36,4.68,26.55,1016.62,2036.00,3393.33,3256.00,3536.09,349.57,345.29,17.96,0000 0000 0000 0000 000000
2015-07-07 00:26:17,0.01,0.20,0.00,24.60,28.00,30.36,4.70,26.57,1016.62,2035.99,3393.12,3256.00,3536.02,350.16,345.78,17.99,0000 0000 0000 0000 000000
2015-07-07 00:31:18,0.00,0.20,0.00,24.61,28.00,30.36,4.74,26.53,1016.60,2035.99,3393.03,3256.00,3536.01,349.74,345.52,18.02,0000 0000 0000 0000 000000
2015-07-07 00:36:19,-0.00,0.20,0.00,24.61,28.00,30.37,4.82,26.55,1016.57,2035.98,3393.01,3256.00,3536.00,350.64,346.43,18.05,0000 0000 0000 0000 000000
2015-07-07 00:41:21,-0.00,0.20,0.00,24.62,28.00,30.37,4.77,26.48,1016.50,2035.98,3393.00,3255.97,3536.00,350.38,346.09,18.08,0000 0000 0000 0000 000000
2015-07-07 00:46:22,0.00,0.20,0.00,24.62,28.02,30.37,4.72,26.57,1016.29,2035.97,3393.00,3255.95,3535.99,349.80,345.51,18.11,0000 0000 0000 0000 000000
2015-07-07 00:51:23,0.00,0.20,0.00,24.65,28.02,30.38,4.75,26.55,1016.15,2035.96,3393.00,3255.89,3535.97,350.19,345.59,18.14,0000 0000 0000 0000 000000
2015-07-07 00:56:24,0.01,0.20,0.00,24.66,28.02,30.39,4.78,26.48,1016.15,2035.95,3392.98,3255.72,3535.94,350.38,345.80,18.16,0000 0000 0000 0000 000000
2015-07-07 01:01:25,0.00,0.20,0.00,24.67,28.02,30.39,4.72,26.49,1016.14,2035.96,3392.98,3255.79,3535.94,349.67,345.31,18.19,0000 0000 0000 0000 000000
2015-07-07 01:06:26,0.00,0.20,0.00,24.66,28.03,30.40,4.62,26.43,1016.13,2035.96,3392.97,3255.65,3535.95,349.69,345.31,18.22,0000 0000 0000 0000 000000
2015-07-07 01:11:28,0.02,0.20,0.00,24.66,28.05,30.40,4.75,26.48,1016.13,2035.95,3392.93,3255.38,3535.77,350.15,345.65,18.25,0000 0000 0000 0000 000000
2015-07-07 01:16:29,0.01,0.20,0.00,24.67,28.05,30.41,4.71,26.58,1016.13,2035.95,3392.77,3255.17,3535.49,349.38,345.07,18.28,0000 0000 0000 0000 000000
2015-07-07 01:21:30,0.01,0.20,0.00,24.67,28.05,30.42,4.68,26.48,1016.13,2035.94,3392.64,3255.14,3535.33,349.70,345.36,18.31,0000 0000 0000 0000 000000
2015-07-07 01:26:31,0.01,0.20,0.00,24.69,28.05,30.42,4.72,26.44,1016.13,2035.92,3392.32,3255.05,3535.06,349.59,345.23,18.34,0000 0000 0000 0000 000000
2015-07-07 01:31:32,-0.01,0.20,0.00,24.68,28.07,30.43,4.70,26.62,1016.13,2035.84,3392.09,3255.01,3535.03,349.64,345.34,18.37,0000 0000 0000 0000 000000
2015-07-07 01:36:34,-0.00,0.20,0.00,24.68,28.07,30.44,4.76,26.56,1016.13,2035.67,3392.03,3255.00,3535.00,349.55,345.20,18.40,0000 0000 0000 0000 000000
2015-07-07 01:41:35,-0.04,0.20,0.00,24.70,28.07,30.43,4.70,26.58,1016.12,2035.54,3392.01,3254.99,3535.00,349.92,345.49,18.43,0000 0000 0000 0000 000000
2015-07-07 01:46:36,-0.01,0.20,0.00,24.70,28.07,30.44,4.77,26.55,1016.08,2035.45,3392.01,3254.99,3535.00,350.00,345.53,18.46,0000 0000 0000 0000 000000
2015-07-07 01:51:37,-0.04,0.20,0.00,24.70,28.08,30.45,4.69,26.51,1015.86,2035.20,3392.00,3254.98,3534.98,349.41,344.93,18.49,0000 0000 0000 0000 000000
2015-07-07 01:56:38,-0.02,0.20,0.00,24.71,28.09,30.45,4.75,26.50,1015.67,2035.13,3392.00,3254.97,3534.98,350.52,346.05,18.52,0000 0000 0000 0000 000000
2015-07-07 02:01:39,0.01,0.20,0.00,24.73,28.10,30.46,4.82,26.51,1015.66,2035.07,3391.99,3254.97,3534.96,350.57,346.02,18.55,0000 0000 0000 0000 000000
2015-07-07 02:06:40,-0.01,0.20,0.00,24.74,28.10,30.47,4.72,26.41,1015.64,2035.04,3391.97,3254.94,3534.93,349.76,345.01,18.58,0000 0000 0000 0000 000000
2015-07-07 02:11:42,0.01,0.20,0.00,24.75,28.10,30.47,4.70,26.48,1015.64,2035.05,3391.98,3254.92,3534.83,349.79,345.07,18.60,0000 0000 0000 0000 000000
2015-07-07 02:16:42,0.00,0.20,0.00,24.74,28.10,30.47,4.64,26.48,1015.63,2035.03,3391.95,3254.81,3534.53,349.08,344.74,18.63,0000 0000 0000 0000 000000
2015-07-07 02:21:44,0.01,0.20,0.00,24.75,28.12,30.48,4.70,26.50,1015.56,2035.02,3391.95,3254.70,3534.35,350.27,345.55,18.66,0000 0000 0000 0000 000000
2015-07-07 02:26:45,0.03,0.20,0.00,24.77,28.12,30.48,4.83,26.57,1015.25,2035.01,3391.66,3254.40,3534.18,350.68,345.91,18.69,0000 0000 0000 0000 000000
2015-07-07 02:31:47,-0.00,0.20,0.00,24.77,28.12,30.47,4.83,26.53,1015.18,2035.02,3391.47,3254.23,3534.08,350.60,345.65,18.72,0000 0000 0000 0000 000000
2015-07-07 02:36:48,0.01,0.20,0.00,24.78,28.13,30.49,4.73,26.53,1015.17,2035.02,3391.50,3254.18,3534.06,350.07,344.82,18.75,0000 0000 0000 0000 000000
2015-07-07 02:41:49,0.01,0.20,0.00,24.78,28.15,30.50,4.74,26.52,1015.15,2035.00,3391.06,3254.02,3534.01,350.28,345.49,18.78,0000 0000 0000 0000 000000
2015-07-07 02:46:50,-0.00,0.20,0.00,24.80,28.15,30.51,4.65,26.61,1015.15,2035.01,3391.04,3254.01,3534.00,349.38,344.53,18.81,0000 0000 0000 0000 000000
2015-07-07 02:51:52,-0.00,0.20,0.00,24.82,28.15,30.51,4.65,26.48,1015.04,2035.00,3391.04,3254.00,3534.00,349.78,344.88,18.84,0000 0000 0000 0000 000000
2015-07-07 02:56:53,0.00,0.20,0.00,24.82,28.17,30.51,4.90,26.66,1014.84,2035.00,3391.05,3254.00,3534.00,350.88,345.85,18.87,0000 0000 0000 0000 000000
2015-07-07 03:01:54,0.00,0.20,0.00,24.84,28.17,30.52,4.72,26.58,1014.77,2035.00,3391.01,3254.00,3534.00,349.73,344.64,18.90,0000 0000 0000 0000 000000
2015-07-07 03:06:55,0.00,0.20,0.00,24.86,28.17,30.53,4.72,26.59,1014.74,2035.00,3391.01,3254.00,3533.99,349.84,344.72,18.93,0000 0000 0000 0000 000000
2015-07-07 03:11:56,0.00,0.20,0.00,24.87,28.18,30.54,4.75,26.70,1014.68,2035.00,3391.00,3254.00,3533.97,349.82,344.65,18.96,0000 0000 0000 0000 000000
2015-07-07 03:16:57,0.00,0.20,0.00,24.87,28.20,30.54,4.77,26.61,1014.66,2035.00,3391.00,3253.97,3533.95,350.43,345.46,18.98,0000 0000 0000 0000 000000
2015-07-07 03:21:58,0.00,0.20,0.00,24.88,28.20,30.55,4.80,26.62,1014.66,2034.99,3391.00,3253.97,3533.79,350.05,344.95,19.01,0000 0000 0000 0000 000000
2015-07-07 03:26:59,0.01,0.20,0.00,24.90,28.21,30.57,4.70,26.58,1014.66,2034.99,3391.00,3253.89,3533.43,350.17,344.92,19.04,0000 0000 0000 0000 000000
2015-07-07 03:32:00,0.01,0.20,0.00,24.91,28.22,30.59,4.82,26.63,1014.66,2034.98,3391.00,3253.88,3533.36,350.59,345.22,19.07,0000 0000 0000 0000 000000
2015-07-07 03:37:01,0.01,0.20,0.00,24.92,28.22,30.60,4.69,26.61,1014.66,2034.97,3391.00,3253.67,3533.10,349.52,344.31,19.10,0000 0000 0000 0000 000000
2015-07-07 03:42:03,0.01,0.20,0.00,24.93,28.25,30.60,4.59,26.56,1014.61,2034.90,3390.99,3253.14,3533.01,349.82,344.70,19.13,0000 0000 0000 0000 000000
2015-07-07 03:47:04,-0.02,0.20,0.00,24.95,28.25,30.60,4.69,26.52,1014.36,2034.80,3390.99,3253.09,3533.00,349.94,344.78,19.16,0000 0000 0000 0000 000000
2015-07-07 03:52:05,0.01,0.20,0.00,24.95,28.26,30.61,4.79,26.59,1014.28,2034.89,3390.99,3253.12,3533.00,350.41,345.03,19.19,0000 0000 0000 0000 000000
2015-07-07 03:57:06,-0.03,0.20,0.00,24.95,28.27,30.62,4.81,26.71,1014.19,2034.70,3390.98,3253.05,3533.00,350.66,345.18,19.22,0000 0000 0000 0000 000000
2015-07-07 04:02:07,-0.07,0.20,0.00,24.95,28.29,30.66,4.74,26.62,1014.20,2034.21,3390.88,3253.00,3532.99,349.77,344.30,19.25,0000 0000 0000 0000 000000
2015-07-07 04:07:08,0.00,0.20,0.00,24.96,28.30,30.66,4.69,26.63,1014.18,2034.20,3390.90,3253.00,3532.99,350.09,344.80,19.28,0000 0000 0000 0000 000000
2015-07-07 04:12:09,-0.01,0.20,0.00,24.98,28.31,30.67,4.73,26.68,1014.18,2034.11,3390.63,3253.00,3532.97,350.04,344.64,19.31,0000 0000 0000 0000 000000
2015-07-07 04:17:11,0.01,0.20,0.00,24.99,28.32,30.67,4.76,26.67,1014.18,2034.03,3390.20,3253.00,3532.74,349.64,344.19,19.34,0000 0000 0000 0000 000000
2015-07-07 04:22:12,0.01,0.20,0.00,24.99,28.33,30.69,4.65,26.65,1014.17,2034.01,3390.02,3252.97,3532.26,349.70,344.46,19.37,0000 0000 0000 0000 000000
2015-07-07 04:27:13,0.01,0.20,0.00,25.00,28.35,30.69,4.77,26.65,1014.17,2034.01,3390.01,3252.79,3532.04,350.15,344.53,19.39,0000 0000 0000 0000 000000
2015-07-07 04:32:14,-0.00,0.20,0.00,25.00,28.35,30.71,4.69,26.63,1014.16,2034.00,3390.00,3252.73,3532.03,350.47,344.99,19.42,0000 0000 0000 0000 000000
2015-07-07 04:37:15,0.01,0.20,0.00,25.02,28.37,30.72,4.73,26.66,1014.06,2034.00,3390.00,3252.26,3532.00,350.29,344.66,19.45,0000 0000 0000 0000 000000
2015-07-07 04:42:16,0.01,0.20,0.00,25.02,28.37,30.72,4.72,26.67,1013.84,2033.99,3389.98,3252.05,3532.00,350.00,344.27,19.48,0000 0000 0000 0000 000000
2015-07-07 04:47:18,0.00,0.20,0.00,25.05,28.40,30.73,4.69,26.63,1013.76,2033.99,3389.98,3252.03,3532.00,350.12,344.52,19.51,0000 0000 0000 0000 000000
2015-07-07 04:52:19,0.00,0.20,0.00,25.07,28.40,30.74,4.74,26.64,1013.69,2033.99,3389.97,3252.01,3531.99,350.28,344.56,19.54,0000 0000 0000 0000 000000
2015-07-07 04:57:20,0.00,0.20,0.00,25.09,28.42,30.75,4.72,26.71,1013.69,2033.98,3389.92,3252.00,3531.94,350.07,344.36,19.57,0000 0000 0000 0000 000000
2015-07-07 05:02:21,0.00,0.20,0.00,25.12,28.42,30.76,4.70,26.57,1013.69,2033.99,3389.85,3252.00,3531.93,349.45,343.66,19.60,0000 0000 0000 0000 000000
2015-07-07 05:07:23,0.02,0.20,0.00,25.15,28.44,30.76,4.68,26.65,1013.69,2033.94,3389.47,3252.00,3531.50,349.54,343.96,19.63,0000 0000 0000 0000 000000
2015-07-07 05:12:24,-0.00,0.20,0.00,25.16,28.45,30.78,4.75,26.67,1013.69,2033.83,3389.16,3251.98,3531.11,350.58,344.75,19.66,0000 0000 0000 0000 000000
2015-07-07 05:17:26,-0.04,0.20,0.00,25.19,28.47,30.78,4.71,26.64,1013.69,2033.66,3389.07,3251.95,3531.03,349.86,343.81,19.69,0000 0000 0000 0000 000000
2015-07-07 05:22:27,-0.04,0.20,0.00,25.22,28.48,30.80,4.76,26.66,1013.69,2033.23,3389.01,3251.69,3531.00,350.37,344.71,19.72,0000 0000 0000 0000 000000
2015-07-07 05:27:28,0.01,0.20,0.00,25.24,28.50,30.82,4.67,26.60,1013.69,2033.07,3389.00,3251.16,3530.99,350.13,344.01,19.75,0000 0000 0000 0000 000000
2015-07-07 05:32:29,0.00,0.20,0.00,25.26,28.51,30.84,4.73,26.63,1013.68,2033.04,3389.00,3251.05,3530.99,349.94,343.93,19.78,0000 0000 0000 0000 000000
2015-07-07 05:37:30,0.00,0.20,0.00,25.28,28.52,30.85,4.65,26.57,1013.65,2033.04,3389.00,3251.05,3530.99,349.50,343.22,19.80,0000 0000 0000 0000 000000
2015-07-07 05:42:32,0.00,0.20,0.00,25.31,28.55,30.88,4.70,26.66,1013.56,2033.03,3388.99,3251.02,3530.94,350.15,344.13,19.83,0000 0000 0000 0000 000000
2015-07-07 05:47:33,-0.00,0.20,0.00,25.32,28.56,30.88,4.72,26.57,1013.43,2033.02,3388.98,3251.01,3530.94,350.11,344.39,19.86,0000 0000 0000 0000 000000
2015-07-07 05:52:34,0.01,0.20,0.00,25.34,28.57,30.90,4.71,26.54,1013.24,2033.01,3388.95,3251.00,3530.68,349.95,344.02,19.89,0000 0000 0000 0000 000000
2015-07-07 05:57:36,0.02,0.20,0.00,25.36,28.60,30.92,4.67,26.62,1013.26,2033.00,3388.73,3250.98,3530.19,349.75,343.68,19.92,0000 0000 0000 0000 000000
2015-07-07 06:02:37,0.04,0.20,0.00,25.37,28.61,30.94,4.76,26.60,1013.22,2033.00,3388.11,3250.55,3529.99,349.95,344.13,19.95,0000 0000 0000 0000 000000
2015-07-07 06:07:38,0.01,0.20,0.00,25.38,28.62,30.96,4.68,26.57,1013.20,2033.00,3388.01,3250.18,3529.99,349.76,343.57,19.98,0000 0000 0000 0000 000000
2015-07-07 06:12:40,0.00,0.20,0.00,25.40,28.65,30.97,4.69,26.63,1013.20,2033.00,3388.00,3250.05,3529.94,350.25,343.92,20.01,0000 0000 0000 0000 000000
2015-07-07 06:17:41,0.00,0.20,0.00,25.41,28.66,31.00,4.74,26.67,1013.16,2032.97,3388.00,3250.00,3529.64,350.22,343.98,20.04,0000 0000 0000 0000 000000
2015-07-07 06:22:42,-0.01,0.20,0.00,25.42,28.67,31.02,4.75,26.75,1012.87,2032.89,3387.99,3250.00,3529.08,350.18,343.73,20.07,0000 0000 0000 0000 000000
2015-07-07 06:27:43,-0.02,0.20,0.00,25.44,28.70,31.03,4.71,26.65,1012.87,2032.65,3387.92,3249.99,3529.01,350.35,343.98,20.10,0000 0000 0000 0000 000000
2015-07-07 06:32:44,-0.00,0.20,0.00,25.45,28.71,31.04,4.67,26.73,1013.01,2032.45,3387.36,3249.85,3529.00,349.79,343.41,20.13,0000 0000 0000 0000 000000
2015-07-07 06:37:45,-0.01,0.20,0.00,25.46,28.72,31.07,4.68,26.66,1013.04,2032.10,3387.01,3249.17,3528.80,349.98,343.59,20.16,0000 0000 0000 0000 000000
2015-07-07 06:42:47,-0.00,0.20,0.00,25.47,28.75,31.09,4.74,26.70,1012.75,2032.04,3386.99,3249.00,3528.27,350.16,343.66,20.19,0000 0000 0000 0000 000000
2015-07-07 06:47:48,0.01,0.20,0.00,25.49,28.76,31.10,4.74,26.68,1012.75,2032.01,3386.79,3249.00,3528.11,349.93,343.44,20.22,0000 0000 0000 0000 000000
2015-07-07 06:52:49,0.01,0.20,0.00,25.50,28.77,31.12,4.71,26.70,1012.72,2032.01,3386.20,3249.00,3528.00,349.90,343.36,20.24,0000 0000 0000 0000 000000
2015-07-07 06:57:50,0.00,0.20,0.00,25.50,28.80,31.14,4.68,26.73,1012.71,2032.01,3386.08,3248.98,3528.00,349.82,343.31,20.27,0000 0000 0000 0000 000000
2015-07-07 07:02:52,0.00,0.20,0.00,25.50,28.80,31.15,4.72,26.83,1012.71,2032.00,3386.00,3248.91,3527.99,349.96,343.35,20.30,0000 0000 0000 0000 000000
2015-07-07 07:07:53,0.01,0.20,0.00,25.52,28.82,31.17,4.72,26.72,1012.71,2032.00,3386.00,3248.75,3527.99,349.91,343.33,20.33,0000 0000 0000 0000 000000
2015-07-07 07:12:54,0.02,0.20,0.00,25.52,28.83,31.19,4.69,26.71,1012.71,2032.00,3386.00,3248.29,3527.89,349.83,343.08,20.36,0000 0000 0000 0000 000000
2015-07-07 07:17:56,0.00,0.20,0.00,25.52,28.85,31.19,4.63,26.76,1012.71,2032.00,3385.99,3248.11,3527.68,349.18,342.55,20.39,0000 0000 0000 0000 000000
2015-07-07 07:22:57,0.01,0.20,0.00,25.53,28.86,31.22,4.65,26.73,1012.71,2031.99,3385.98,3248.02,3527.35,349.44,342.94,20.42,0000 0000 0000 0000 000000
2015-07-07 07:27:59,0.01,0.20,0.00,25.54,28.87,31.23,4.77,26.75,1012.71,2031.99,3385.94,3248.01,3527.19,350.09,343.51,20.45,0000 0000 0000 0000 000000
2015-07-07 07:33:00,0.01,0.20,0.00,25.54,28.88,31.24,4.71,26.72,1012.72,2031.99,3385.66,3248.00,3527.02,349.76,343.25,20.48,0000 0000 0000 0000 000000
2015-07-07 07:38:01,0.00,0.20,0.00,25.55,28.90,31.26,4.73,26.86,1012.71,2031.94,3385.24,3247.99,3527.01,349.74,343.09,20.51,0000 0000 0000 0000 000000
2015-07-07 07:43:02,0.00,0.20,0.00,25.55,28.90,31.26,4.68,26.81,1012.71,2031.93,3385.02,3247.99,3527.00,349.64,343.15,20.54,0000 0000 0000 0000 000000
2015-07-07 07:48:03,-0.03,0.20,0.00,25.55,28.92,31.27,4.71,26.68,1012.71,2031.81,3385.01,3247.96,3527.00,350.54,343.99,20.57,0000 0000 0000 0000 000000
2015-07-07 07:53:05,0.00,0.20,0.00,25.56,28.92,31.29,4.66,26.66,1012.71,2031.66,3385.00,3247.94,3526.97,349.47,342.84,20.60,0000 0000 0000 0000 000000
2015-07-07 07:58:06,-0.01,0.20,0.00,25.56,28.94,31.29,4.70,26.70,1012.71,2031.62,3385.00,3247.90,3526.95,349.96,343.29,20.62,0000 0000 0000 0000 000000
2015-07-07 08:03:07,-0.02,0.20,0.00,25.57,28.95,31.30,4.64,26.69,1012.71,2031.47,3385.00,3247.60,3526.82,349.99,343.22,20.65,0000 0000 0000 0000 000000
2015-07-07 08:08:08,0.00,0.20,0.00,25.56,28.95,31.31,4.70,26.72,1012.71,2031.30,3384.99,3247.32,3526.58,349.96,343.56,20.68,0000 0000 0000 0000 000000
2015-07-07 08:13:10,-0.00,0.20,0.00,25.55,28.97,31.32,4.72,26.73,1012.71,2031.17,3384.98,3247.14,3526.32,349.92,343.03,20.71,0000 0000 0000 0000 000000
2015-07-07 08:18:11,-0.00,0.20,0.00,25.55,28.97,31.34,4.82,26.74,1012.71,2031.07,3384.95,3247.03,3526.10,350.34,343.72,20.74,0000 0000 0000 0000 000000
2015-07-07 08:23:12,0.00,0.20,0.00,25.55,28.97,31.34,4.74,26.69,1012.71,2031.06,3384.85,3247.02,3526.02,350.22,343.66,20.77,0000 0000 0000 0000 000000
2015-07-07 08:28:13,-0.00,0.20,0.00,25.55,29.00,31.35,4.75,26.78,1012.71,2031.02,3384.72,3247.00,3526.01,350.35,343.92,20.80,0000 0000 0000 0000 000000
2015-07-07 08:33:14,0.01,0.20,0.00,25.55,29.00,31.37,4.74,26.69,1012.71,2031.01,3384.34,3247.00,3526.00,350.50,343.95,20.83,0000 0000 0000 0000 000000
2015-07-07 08:38:16,0.00,0.20,0.00,25.55,29.00,31.37,4.66,26.72,1012.71,2031.00,3384.12,3247.00,3526.00,349.92,343.07,20.86,0000 0000 0000 0000 000000
2015-07-07 08:43:17,0.00,0.20,0.00,25.53,29.00,31.38,4.70,26.72,1012.71,2031.00,3384.00,3246.99,3525.99,350.32,343.69,20.89,0000 0000 0000 0000 000000
2015-07-07 08:48:18,0.00,0.20,0.00,25.54,29.02,31.38,4.66,26.61,1012.71,2031.00,3384.01,3246.98,3525.98,349.69,343.10,20.92,0000 0000 0000 0000 000000
2015-07-07 08:53:19,0.00,0.20,0.00,25.53,29.02,31.38,4.74,26.69,1012.71,2031.00,3384.00,3246.98,3525.98,350.39,343.67,20.95,0000 0000 0000 0000 000000
2015-07-07 08:58:20,0.00,0.20,0.00,25.52,29.02,31.38,4.75,26.67,1012.71,2031.00,3384.00,3246.98,3525.98,350.32,343.71,20.98,0000 0000 0000 0000 000000
2015-07-07 09:03:21,0.00,0.20,0.00,25.52,29.02,31.39,4.67,26.57,1012.71,2031.00,3384.00,3246.95,3525.98,349.39,342.83,21.01,0000 0000 0000 0000 000000
2015-07-07 09:08:23,-0.00,0.20,0.00,25.52,29.03,31.40,4.68,26.68,1012.71,2031.00,3384.00,3246.92,3525.95,349.65,343.18,21.03,0000 0000 0000 0000 000000
2015-07-07 09:13:24,-0.00,0.20,0.00,25.51,29.04,31.41,4.70,26.67,1012.71,2031.00,3384.00,3246.91,3525.94,349.88,343.29,21.06,0000 0000 0000 0000 000000
2015-07-07 09:18:25,0.01,0.20,0.00,25.50,29.05,31.40,4.70,26.65,1012.71,2031.00,3383.99,3246.81,3525.86,350.49,343.63,21.09,0000 0000 0000 0000 000000
2015-07-07 09:23:27,0.03,0.20,0.00,25.50,29.05,31.41,4.73,26.69,1012.71,2031.00,3383.97,3246.45,3525.47,349.87,343.31,21.12,0000 0000 0000 0000 000000
2015-07-07 09:28:28,0.01,0.20,0.00,25.50,29.05,31.41,4.65,26.58,1012.70,2031.00,3383.90,3246.18,3525.27,349.17,342.71,21.15,0000 0000 0000 0000 000000
2015-07-07 09:33:29,0.01,0.20,0.00,25.49,29.05,31.42,4.76,26.68,1012.70,2031.00,3383.82,3246.15,3525.18,349.91,343.23,21.18,0000 0000 0000 0000 000000
2015-07-07 09:38:31,0.01,0.21,0.00,25.49,29.05,31.42,4.71,26.74,1012.60,2031.00,3383.35,3246.05,3525.04,349.78,343.14,21.21,0000 0000 0000 0000 000000
2015-07-07 09:43:32,-0.01,0.21,0.00,25.48,29.05,31.42,4.57,26.57,1012.30,2030.99,3383.40,3246.05,3525.04,349.46,342.81,21.24,0000 0000 0000 0000 000000
2015-07-07 09:48:33,0.00,0.21,0.00,25.47,29.05,31.42,4.75,26.60,1012.24,2030.99,3383.50,3246.05,3525.06,350.41,343.67,21.27,0000 0000 0000 0000 000000
2015-07-07 09:53:35,0.01,0.21,0.00,25.47,29.05,31.42,4.67,26.54,1012.23,2030.99,3383.28,3246.03,3525.04,349.59,342.92,21.30,0000 0000 0000 0000 000000
2015-07-07 09:58:36,0.00,0.21,0.00,25.47,29.05,31.41,4.67,26.55,1012.22,2030.99,3383.15,3246.03,3525.01,349.91,343.14,21.33,0000 0000 0000 0000 000000
2015-07-07 10:03:37,0.00,0.21,0.00,25.47,29.05,31.41,4.69,26.57,1012.22,2030.99,3383.04,3246.01,3525.01,349.66,343.14,21.36,0000 0000 0000 0000 000000
2015-07-07 10:08:38,0.00,0.21,0.00,25.46,29.05,31.41,4.69,26.62,1012.22,2030.99,3383.01,3246.00,3525.00,350.06,343.43,21.39,0000 0000 0000 0000 000000
2015-07-07 10:13:39,-0.00,0.21,0.00,25.46,29.05,31.42,4.63,26.58,1012.23,2030.99,3383.00,3246.00,3525.00,349.59,343.05,21.42,0000 0000 0000 0000 000000
2015-07-07 10:18:41,0.00,0.21,0.00,25.45,29.05,31.42,4.71,26.57,1012.29,2030.99,3383.00,3246.00,3525.00,349.57,343.03,21.45,0000 0000 0000 0000 000000
2015-07-07 10:23:42,-0.00,0.21,0.00,25.43,29.05,31.42,4.65,26.54,1012.41,2030.99,3383.00,3246.00,3525.00,349.43,342.90,21.47,0000 0000 0000 0000 000000
2015-07-07 10:28:43,0.00,0.21,0.00,25.42,29.05,31.43,4.71,26.58,1012.39,2030.99,3383.00,3246.00,3525.00,349.95,343.39,21.50,0000 0000 0000 0000 000000
2015-07-07 10:33:44,0.00,0.21,0.00,25.42,29.05,31.42,4.68,26.63,1012.28,2030.99,3383.01,3246.00,3525.00,350.01,343.42,21.53,0000 0000 0000 0000 000000
2015-07-07 10:38:46,0.00,0.21,0.00,25.41,29.05,31.43,4.70,26.61,1012.50,2030.99,3383.00,3246.00,3525.00,349.94,343.38,21.56,0000 0000 0000 0000 000000
2015-07-07 10:43:47,0.00,0.21,0.00,25.40,29.05,31.42,4.71,26.57,1012.42,2030.99,3383.00,3246.01,3525.00,350.06,343.69,21.59,0000 0000 0000 0000 000000
2015-07-07 10:48:48,0.00,0.21,0.00,25.41,29.05,31.43,4.71,26.55,1012.65,2031.00,3383.00,3246.00,3525.00,350.04,343.64,21.62,0000 0000 0000 0000 000000
2015-07-07 10:53:49,0.00,0.21,0.00,25.40,29.05,31.42,4.75,26.56,1012.71,2030.99,3383.00,3246.00,3525.00,350.17,343.70,21.65,0000 0000 0000 0000 000000
2015-07-07 10:58:51,0.00,0.21,0.00,25.38,29.05,31.41,4.78,26.57,1012.67,2030.99,3383.00,3246.02,3525.00,350.20,343.86,21.68,0000 0000 0000 0000 000000
2015-07-07 11:03:52,0.00,0.21,0.00,25.37,29.05,31.42,4.73,26.60,1012.67,2030.99,3383.00,3246.02,3525.00,350.22,344.00,21.71,0000 0000 0000 0000 000000
2015-07-07 11:08:54,0.00,0.21,0.00,25.37,29.05,31.42,4.68,26.57,1012.63,2030.99,3383.00,3246.00,3525.00,349.97,343.49,21.74,0000 0000 0000 0000 000000
2015-07-07 11:13:55,0.00,0.21,0.00,25.35,29.04,31.41,4.73,26.63,1012.43,2030.99,3383.00,3246.01,3525.00,350.19,343.85,21.77,0000 0000 0000 0000 000000
2015-07-07 11:18:57,0.00,0.21,0.00,25.33,29.03,31.43,4.76,26.66,1012.42,2031.00,3383.00,3246.01,3525.00,350.13,343.64,21.80,0000 0000 0000 0000 000000
2015-07-07 11:23:58,0.00,0.21,0.00,25.32,29.02,31.43,4.73,26.61,1012.49,2031.00,3382.99,3246.01,3525.00,350.30,343.78,21.83,0000 0000 0000 0000 000000
2015-07-07 11:28:59,0.00,0.21,0.00,25.31,29.02,31.42,4.71,26.57,1012.57,2031.00,3382.99,3246.00,3525.00,349.60,343.32,21.86,0000 0000 0000 0000 000000
2015-07-07 11:34:00,0.00,0.21,0.00,25.30,29.02,31.41,4.73,26.57,1012.65,2031.00,3382.98,3246.00,3525.00,350.27,343.97,21.88,0000 0000 0000 0000 000000
2015-07-07 11:39:02,0.00,0.21,0.00,25.29,29.02,31.42,4.77,26.57,1012.66,2031.00,3382.98,3246.00,3525.00,350.05,343.84,21.91,0000 0000 0000 0000 000000
2015-07-07 11:44:03,0.00,0.21,0.00,25.27,29.00,31.41,4.67,26.53,1012.65,2031.00,3382.99,3246.02,3525.00,349.95,343.70,21.94,0000 0000 0000 0000 000000
2015-07-07 11:49:04,-0.00,0.21,0.00,25.26,29.00,31.41,4.67,26.52,1012.66,2031.00,3382.98,3246.02,3525.00,349.96,343.67,21.97,0000 0000 0000 0000 000000
2015-07-07 11:54:05,0.00,0.21,0.00,25.25,29.00,31.42,4.77,26.48,1012.68,2031.01,3382.98,3246.01,3525.00,350.11,343.88,22.00,0000 0000 0000 0000 000000
2015-07-07 11:59:07,0.00,0.21,0.00,25.24,29.00,31.43,4.70,26.52,1012.63,2031.02,3382.97,3246.02,3525.01,350.08,343.81,22.03,0000 0000 0000 0000 000000
2015-07-07 12:04:08,0.01,0.21,0.00,25.22,28.99,31.43,4.70,26.56,1012.38,2031.09,3382.98,3246.05,3525.02,350.22,343.72,22.06,0000 0000 0000 0000 000000
2015-07-07 12:09:09,0.01,0.21,0.00,25.20,28.97,31.42,4.76,26.51,1012.31,2031.12,3382.98,3246.07,3525.00,350.05,343.74,22.09,0000 0000 0000 0000 000000
2015-07-07 12:14:10,-0.01,0.21,0.00,25.19,28.97,31.41,4.73,26.63,1012.26,2031.11,3382.97,3246.04,3525.01,349.93,343.60,22.12,0000 0000 0000 0000 000000
2015-07-07 12:19:11,0.03,0.21,0.00,25.17,28.96,31.42,4.84,26.60,1012.25,2031.31,3382.97,3246.10,3525.02,350.13,343.78,22.15,0000 0000 0000 0000 000000
2015-07-07 12:24:13,0.02,0.21,0.00,25.17,28.95,31.42,4.73,26.57,1012.32,2031.43,3382.97,3246.14,3525.03,349.83,343.68,22.18,0000 0000 0000 0000 000000
2015-07-07 12:29:14,0.00,0.21,0.00,25.15,28.95,31.40,4.78,26.50,1012.34,2031.51,3382.97,3246.22,3525.04,350.42,344.14,22.21,0000 0000 0000 0000 000000
2015-07-07 12:34:15,0.02,0.21,0.00,25.14,28.95,31.39,4.69,26.43,1012.27,2031.76,3382.99,3246.55,3525.11,349.82,343.63,22.24,0000 0000 0000 0000 000000
2015-07-07 12:39:16,0.01,0.21,0.00,25.12,28.92,31.41,4.71,26.55,1012.25,2031.87,3382.97,3246.58,3525.10,350.32,344.04,22.27,0000 0000 0000 0000 000000
2015-07-07 12:44:18,-0.00,0.21,0.00,25.12,28.92,31.39,4.77,26.52,1012.27,2031.87,3382.96,3246.57,3525.18,350.04,343.76,22.29,0000 0000 0000 0000 000000
2015-07-07 12:49:19,0.00,0.21,0.00,25.10,28.92,31.41,4.70,26.55,1012.34,2031.94,3382.99,3246.80,3525.24,349.95,343.74,22.32,0000 0000 0000 0000 000000
2015-07-07 12:54:20,0.00,0.21,0.00,25.09,28.90,31.40,4.80,26.58,1012.34,2031.96,3382.99,3246.87,3525.30,350.42,344.05,22.35,0000 0000 0000 0000 000000
2015-07-07 12:59:21,0.00,0.21,0.00,25.08,28.90,31.38,4.75,26.56,1012.29,2031.98,3382.97,3246.83,3525.34,350.25,343.96,22.38,0000 0000 0000 0000 000000